Regional Weather Roundup
Issued by NWS Cleveland, OH

Home | Current Version | Previous Version | Text Only | Print | Product List | Glossary On
Versions: 1 2 3 4 5 6 7 8 9 10 11 12 13 14 15 16 17 18 19 20 21 22 23 24 25 26 27 28 29 30 31 32 33 34 35 36 37 38 39 40 41 42 43 44 45 46 47 48 49 50
000
ASUS41 KCLE 231012
RWRCLE
OHIO REGIONAL WEATHER ROUNDUP
NATIONAL WEATHER SERVICE WILMINGTON, OH
500 AM EST THU FEB 23 2017

NOTE: "FAIR" INDICATES FEW OR NO CLOUDS BELOW 12,000 FEET WITH NO
SIGNIFICANT WEATHER AND/OR OBSTRUCTIONS TO VISIBILITY.

OHZ001>008-015>018-024>027-034-035-043-044-231100-
   NORTHWEST OHIO

CITY           SKY/WX    TMP DP  RH WIND       PRES   REMARKS
DEFIANCE       FAIR      55  52  89 SW9       29.69S
FINDLAY        FAIR      56  51  84 S13       29.71S
TOLEDO EXPRESS FAIR      56  54  93 SW17      29.67S
TOLEDO EXEC    FAIR      56  54  93 SW10      29.69S
LIMA           FAIR      56  54  93 S13       29.73S
$$

OHZ009>014-019>023-028>033-038-089-231100-
   NORTHEAST OHIO

CITY           SKY/WX    TMP DP  RH WIND       PRES   REMARKS
CLE-HOPKINS    FAIR      59  52  77 S12       29.75F
CLE-LAKEFRONT  CLOUDY    60  53  77 S20G29    29.71F
CUY CO. ARPT   NOT AVBL
LORAIN-ELYRIA  MOCLDY    56  51  84 SW13      29.74R
ASHTABULA      CLOUDY    56  53  90 S16G22    29.75S
AKRON-CANTON   CLOUDY    56  52  86 SW8       29.78S FOG
WOOSTER        CLOUDY    56  53  90 SW9       29.78R
MANSFIELD      CLOUDY    58  56  93 SW16G22   29.76S
YOUNGSTOWN     CLOUDY    54  51  90 S8        29.79R
$$

OHZ042-051>053-060>062-070>072-077>081-231100-
  SOUTHWEST OHIO

CITY           SKY/WX    TMP DP  RH WIND       PRES   REMARKS
CINC-COVINGTON CLOUDY    60  56  86 SW7       29.80S
CINC-LUNKEN    CLOUDY    54  54 100 W3        29.81R
HAMILTON       CLOUDY    58  57  97 SW5       29.80S
DAYTON         CLOUDY    56  54  93 SW12      29.78R
WRIGHT-PAT AFB CLOUDY    58  58 100 S9        29.78R
DAYTON GENERAL CLOUDY    57  55  93 S8        29.78S
WILMINGTON     CLOUDY    57  55  93 SW9       29.79S
$$

OHZ036-037-039>041-045>050-054>059-063>069-073>076-082>088-231100-
  CENTRAL AND SOUTHEAST OHIO

CITY           SKY/WX    TMP DP  RH WIND       PRES   REMARKS
COLUMBUS       CLOUDY    57  54  89 S6        29.78S
OSU AIRPORT    CLOUDY    55  55 100 S8        29.78S
BOLTON FIELD   CLOUDY    54  54 100 S7        29.79S FOG
RICKENBACK AFB CLOUDY    55  55 100 S8        29.79R
NEWARK         CLOUDY    53  51  93 CALM      29.79S FOG
MARION         MOCLDY    56  53  90 S16G24    29.76S FOG
LANCASTER      CLOUDY    57  54  89 S7        29.80S
ZANESVILLE     CLOUDY    56  53  90 S7        29.80S
NEW PHILLY     CLOUDY    56  54  93 S5        29.80S
$$



USA.gov is the U.S. government's official web portal to all federal, state and local government web resources and services.